• In Deutschland
  • Länderverzeichnis
  • Für 7 Tage
  • Wassertemperatur
  • Satellitenkarten
  • Wetterkarte
  • Widgets
  • user-avatar
    Anmelden

    Stündliche Wetter Weißenfels

    Heute, 19 Februar, Montag

    Zeit Temperatur Niederschläge Wind Luftdruck Luftfeuchtigkeit
    00:00 -2°C° 0 mm 2 m/S 757 mmHg 82%
    01:00 -2°C° 0 mm 2 m/S 757 mmHg 82%
    02:00 -2°C° 0 mm 2 m/S 756 mmHg 82%
    03:00 -3°C° 0 mm 2 m/S 756 mmHg 82%
    04:00 -3°C° 0 mm 2 m/S 756 mmHg 81%
    05:00 -3°C° 0 mm 2 m/S 755 mmHg 80%
    06:00 0°C° 0 mm 1 m/S 755 mmHg 79%
    07:00 0°C° 0 mm 1 m/S 755 mmHg 78%
    08:00 +1°C° 0 mm 1 m/S 755 mmHg 74%
    09:00 +2°C° 0 mm 1 m/S 755 mmHg 69%
    10:00 +2°C° 0 mm 1 m/S 754 mmHg 64%
    11:00 +3°C° 0 mm 1 m/S 754 mmHg 61%
    12:00 +4°C° 0 mm 1 m/S 754 mmHg 58%
    13:00 +5°C° 0 mm 1 m/S 753 mmHg 55%
    14:00 +5°C° 0 mm 1 m/S 753 mmHg 57%
    15:00 +5°C° 0 mm 1 m/S 753 mmHg 59%
    16:00 +5°C° 0 mm 1 m/S 752 mmHg 61%
    17:00 +4°C° 0 mm 1 m/S 752 mmHg 64%
    18:00 +3°C° 0 mm 1 m/S 752 mmHg 67%
    19:00 +2°C° 0 mm 1 m/S 752 mmHg 71%
    20:00 +1°C° 0 mm 1 m/S 752 mmHg 72%
    21:00 +1°C° 0 mm 1 m/S 752 mmHg 72%
    22:00 +1°C° 0 mm 1 m/S 752 mmHg 73%
    23:00 +1°C° 0 mm 1 m/S 751 mmHg 74%

    Morgen, 20 Februar, Dienstag

    Zeit Temperatur Niederschläge Wind Luftdruck Luftfeuchtigkeit
    00:00 0°C° 0 mm 1 m/S 751 mmHg 75%
    01:00 0°C° 0 mm 1 m/S 751 mmHg 75%
    02:00 0°C° 0 mm 1 m/S 751 mmHg 77%
    03:00 0°C° 0 mm 1 m/S 751 mmHg 78%
    04:00 -1°C° 0 mm 1 m/S 751 mmHg 80%
    05:00 -1°C° 0 mm 1 m/S 751 mmHg 81%
    06:00 -3°C° 0 mm 2 m/S 751 mmHg 83%
    07:00 -3°C° 0 mm 2 m/S 751 mmHg 85%
    08:00 -2°C° 0 mm 2 m/S 751 mmHg 79%
    09:00 -1°C° 0 mm 2 m/S 751 mmHg 74%
    10:00 +1°C° 0 mm 2 m/S 751 mmHg 69%
    11:00 +1°C° 0 mm 3 m/S 751 mmHg 65%
    12:00 +2°C° 0 mm 3 m/S 751 mmHg 60%
    13:00 +3°C° 0 mm 3 m/S 751 mmHg 55%
    14:00 +3°C° 0 mm 3 m/S 751 mmHg 57%
    15:00 +3°C° 0 mm 3 m/S 751 mmHg 58%
    16:00 +3°C° 0 mm 4 m/S 751 mmHg 60%
    17:00 +2°C° 0 mm 3 m/S 752 mmHg 66%
    18:00 0°C° 0 mm 3 m/S 752 mmHg 72%
    19:00 -1°C° 0 mm 3 m/S 752 mmHg 79%
    20:00 -1°C° 0 mm 3 m/S 753 mmHg 80%
    21:00 -2°C° 0 mm 3 m/S 753 mmHg 82%
    22:00 -4°C° 0 mm 3 m/S 754 mmHg 84%
    23:00 -3°C° 0 mm 2 m/S 754 mmHg 85%

    übermorgen, 21 Februar, Mittwoch

    Zeit Temperatur Niederschläge Wind Luftdruck Luftfeuchtigkeit
    00:00 -3°C° 0 mm 2 m/S 754 mmHg 85%
    01:00 -4°C° 0 mm 2 m/S 754 mmHg 86%
    02:00 -4°C° 0 mm 2 m/S 754 mmHg 86%
    03:00 -4°C° 0 mm 2 m/S 754 mmHg 86%
    04:00 -4°C° 0 mm 2 m/S 754 mmHg 86%
    05:00 -4°C° 0 mm 2 m/S 755 mmHg 86%
    06:00 -4°C° 0 mm 2 m/S 755 mmHg 86%
    07:00 -4°C° 0 mm 2 m/S 755 mmHg 86%
    08:00 -3°C° 0 mm 2 m/S 755 mmHg 81%
    09:00 -4°C° 0 mm 3 m/S 755 mmHg 75%
    10:00 -2°C° 0 mm 3 m/S 756 mmHg 69%
    11:00 0°C° 0 mm 3 m/S 755 mmHg 63%
    12:00 +1°C° 0 mm 3 m/S 755 mmHg 57%
    13:00 +2°C° 0 mm 3 m/S 755 mmHg 52%
    14:00 +1°C° 0 mm 4 m/S 755 mmHg 53%
    15:00 +1°C° 0 mm 4 m/S 755 mmHg 54%
    16:00 0°C° 0 mm 4 m/S 754 mmHg 55%
    17:00 -1°C° 0 mm 4 m/S 754 mmHg 61%
    18:00 -1°C° 0 mm 3 m/S 755 mmHg 67%
    19:00 -2°C° 0 mm 3 m/S 755 mmHg 73%
    20:00 -2°C° 0 mm 3 m/S 755 mmHg 76%
    21:00 -2°C° 0 mm 3 m/S 755 mmHg 78%
    22:00 -2°C° 0 mm 3 m/S 755 mmHg 81%
    23:00 -4°C° 0 mm 3 m/S 755 mmHg 82%

    22 Februar, Donnerstag

    Zeit Temperatur Niederschläge Wind Luftdruck Luftfeuchtigkeit
    00:00 -4°C° 0 mm 3 m/S 755 mmHg 83%
    01:00 -4°C° 0 mm 4 m/S 755 mmHg 85%
    02:00 -4°C° 0 mm 4 m/S 755 mmHg 84%
    03:00 -5°C° 0 mm 4 m/S 755 mmHg 84%
    04:00 -5°C° 0 mm 4 m/S 755 mmHg 83%
    05:00 -5°C° 0 mm 4 m/S 755 mmHg 81%
    06:00 -5°C° 0 mm 4 m/S 755 mmHg 79%
    07:00 -6°C° 0 mm 5 m/S 755 mmHg 78%
    08:00 -5°C° 0 mm 5 m/S 755 mmHg 70%
    09:00 -5°C° 0 mm 6 m/S 755 mmHg 63%
    10:00 -4°C° 0 mm 6 m/S 755 mmHg 56%
    11:00 -3°C° 0 mm 6 m/S 755 mmHg 52%
    12:00 -2°C° 0 mm 7 m/S 755 mmHg 49%
    13:00 -1°C° 0 mm 7 m/S 755 mmHg 45%
    14:00 -1°C° 0 mm 7 m/S 754 mmHg 46%
    15:00 -2°C° 0 mm 7 m/S 754 mmHg 47%
    16:00 -2°C° 0 mm 7 m/S 754 mmHg 48%
    17:00 -3°C° 0 mm 6 m/S 754 mmHg 52%
    18:00 -4°C° 0 mm 5 m/S 754 mmHg 56%
    19:00 -5°C° 0 mm 5 m/S 754 mmHg 61%
    20:00 -5°C° 0 mm 5 m/S 754 mmHg 62%
    21:00 -5°C° 0 mm 5 m/S 755 mmHg 62%
    22:00 -6°C° 0 mm 5 m/S 755 mmHg 63%
    23:00 -6°C° 0 mm 5 m/S 755 mmHg 63%

    23 Februar, Freitag

    Zeit Temperatur Niederschläge Wind Luftdruck Luftfeuchtigkeit
    00:00 -6°C° 0 mm 5 m/S 755 mmHg 63%
    01:00 -7°C° 0 mm 5 m/S 755 mmHg 62%
    02:00 -7°C° 0 mm 5 m/S 755 mmHg 62%
    03:00 -7°C° 0 mm 5 m/S 754 mmHg 62%
    04:00 -7°C° 0 mm 5 m/S 754 mmHg 61%
    05:00 -7°C° 0 mm 5 m/S 755 mmHg 62%
    06:00 -7°C° 0 mm 5 m/S 755 mmHg 63%
    07:00 -8°C° 0 mm 5 m/S 755 mmHg 63%
    08:00 -8°C° 0 mm 6 m/S 755 mmHg 59%
    09:00 -6°C° 0 mm 6 m/S 756 mmHg 55%
    10:00 -5°C° 0 mm 6 m/S 756 mmHg 51%
    11:00 -6°C° 0 mm 7 m/S 756 mmHg 48%
    12:00 -4°C° 0 mm 7 m/S 756 mmHg 45%
    13:00 -3°C° 0 mm 7 m/S 756 mmHg 42%
    14:00 -3°C° 0 mm 7 m/S 756 mmHg 42%
    15:00 -3°C° 0 mm 7 m/S 756 mmHg 42%
    16:00 -3°C° 0 mm 7 m/S 756 mmHg 42%
    17:00 -4°C° 0 mm 6 m/S 756 mmHg 45%
    18:00 -5°C° 0 mm 6 m/S 757 mmHg 48%
    19:00 -6°C° 0 mm 5 m/S 757 mmHg 51%
    20:00 -6°C° 0 mm 5 m/S 758 mmHg 49%
    21:00 -7°C° 0 mm 5 m/S 758 mmHg 47%
    22:00 -7°C° 0 mm 5 m/S 759 mmHg 46%
    23:00 -7°C° 0 mm 5 m/S 759 mmHg 45%

    24 Februar, Samstag

    Zeit Temperatur Niederschläge Wind Luftdruck Luftfeuchtigkeit
    00:00 -7°C° 0 mm 5 m/S 759 mmHg 45%
    01:00 -8°C° 0 mm 5 m/S 759 mmHg 45%
    02:00 -8°C° 0 mm 4 m/S 759 mmHg 47%
    03:00 -8°C° 0 mm 4 m/S 759 mmHg 50%
    04:00 -8°C° 0 mm 4 m/S 759 mmHg 53%
    05:00 -7°C° 0 mm 3 m/S 760 mmHg 56%
    06:00 -7°C° 0 mm 3 m/S 760 mmHg 60%
    07:00 -8°C° 0 mm 3 m/S 761 mmHg 63%
    08:00 -7°C° 0 mm 3 m/S 761 mmHg 60%
    09:00 -7°C° 0 mm 4 m/S 761 mmHg 56%
    10:00 -5°C° 0 mm 4 m/S 762 mmHg 52%
    11:00 -4°C° 0 mm 4 m/S 762 mmHg 48%
    12:00 -4°C° 0 mm 4 m/S 761 mmHg 44%
    13:00 -3°C° 0 mm 4 m/S 761 mmHg 40%
    14:00 -3°C° 0 mm 4 m/S 761 mmHg 40%
    15:00 -4°C° 0 mm 5 m/S 761 mmHg 40%
    16:00 -4°C° 0 mm 5 m/S 760 mmHg 39%
    17:00 -4°C° 0 mm 4 m/S 760 mmHg 45%
    18:00 -4°C° 0 mm 3 m/S 760 mmHg 50%
    19:00 -5°C° 0 mm 3 m/S 760 mmHg 55%
    20:00 -5°C° 0 mm 3 m/S 760 mmHg 59%
    21:00 -7°C° 0 mm 4 m/S 760 mmHg 62%
    22:00 -7°C° 0 mm 4 m/S 760 mmHg 65%
    23:00 -7°C° 0 mm 5 m/S 760 mmHg 66%
    Mehr zeigen